Algoma Mariner — CFN5517 — position and weather

sailwx.info

Track history (hours):
 
Tides and Currents Weather Stations Pressure Air Temp Water Temp Dewpoint Dewpoint Depression Visibility Wind Speed Wind Dir Waves Ship Positions

Algoma Mariner

Last reported at 2014-Jul-26 18:00 UTC. Time now 2014-Jul-28 14:29 UTC.
Position N 50°00' W 066°48'.

Length 225 m; draft 7.2 m.

Type: Cargo ship. MMSI: 316014050.

Wind from 220 at 5 knots

Waves 0.5 meters (2 feet), 1 second period

Barometer 1008.0 mb
Air temperature 17.0 ° C
Visibility: greater than 5.4 NM
Water temperature 4.0 ° C

Date/timePositionNaut miles runAvg speedWind from/ knotsBaromVisibWave heightAir tempDewpointWater temp
2014-Jul-26 18:00N 50°00' W 066°48'   220 / 51008.0 5.4 0.517.0 4.0
2014-Jul-23 10:12N 46°34' W 072°07'913.6
2014-Jul-23 09:33N 46°27' W 072°15'1413.7
2014-Jul-23 08:33N 46°20' W 072°32'1212.4
2014-Jul-23 07:34N 46°14' W 072°47'2612.7
2014-Jul-23 05:30N 45°54' W 073°13'5 5.7
2014-Jul-23 04:34N 45°50' W 073°17'0 0.0
2014-Jul-23 03:33N 45°50' W 073°17'0 0.0
2014-Jul-23 02:33N 45°50' W 073°17'0 0.0
2014-Jul-23 01:33N 45°50' W 073°17'0 0.0
2014-Jul-23 00:33N 45°50' W 073°17'0 0.0
2014-Jul-22 23:33N 45°50' W 073°17'0 0.0
2014-Jul-22 22:33N 45°50' W 073°17'0 0.0
2014-Jul-22 21:33N 45°50' W 073°17'0 0.0
2014-Jul-22 20:33N 45°50' W 073°17'0 0.0
2014-Jul-22 19:33N 45°50' W 073°17'0 0.0
2014-Jul-22 18:33N 45°50' W 073°17'2 1.8
2014-Jul-22 17:33N 45°52' W 073°16'6 5.8
2014-Jul-22 16:31N 45°57' W 073°13'9 6.5
2014-Jul-22 15:12N 46°04' W 073°05'15 7.8
2014-Jul-22 13:14N 46°13' W 072°48'7 9.8
2014-Jul-22 12:33N 46°16' W 072°39'8 8.2
2014-Jul-22 11:33N 46°22' W 072°30'9 8.8
2014-Jul-22 10:33N 46°26' W 072°19'10 9.5
2014-Jul-22 09:33N 46°33' W 072°09'23211.9
2014-Jul-21 14:00N 49°00' W 067°42'   260 / 61024.010.8 0.5-7.7 6.0
2014-Jul-19 07:00N 49°18' W 064°00'17612.6 280 / 171023.010.8 1.515.0 9.0
2014-Jul-18 17:00N 48°30' W 059°42'28 0.8 220 / 221017.010.8 2.017.0 10.0
2014-Jul-17 06:00N 48°30' W 059°00'   250 / 131017.010.8 1.520.0 12.0
Track history (hours):
 
Tides and Currents Weather Stations Pressure Air Temp Water Temp Dewpoint Dewpoint Depression Visibility Wind Speed Wind Dir Waves Ship Positions

Algoma Mariner

Last reported at 2014-Jul-26 18:00 UTC. Time now 2014-Jul-28 14:29 UTC.
Position N 50°00' W 066°48'.

Length 225 m; draft 7.2 m.

Type: Cargo ship. MMSI: 316014050.

Wind from 220 at 5 knots

Waves 0.5 meters (2 feet), 1 second period

Barometer 1008.0 mb
Air temperature 17.0 ° C
Visibility: greater than 5.4 NM
Water temperature 4.0 ° C

Date/timePositionNaut miles runAvg speedWind from/ knotsBaromVisibWave heightAir tempDewpointWater temp
2014-Jul-26 18:00N 50°00' W 066°48'   220 / 51008.0 5.4 0.517.0 4.0
2014-Jul-23 10:12N 46°34' W 072°07'913.6
2014-Jul-23 09:33N 46°27' W 072°15'1413.7
2014-Jul-23 08:33N 46°20' W 072°32'1212.4
2014-Jul-23 07:34N 46°14' W 072°47'2612.7
2014-Jul-23 05:30N 45°54' W 073°13'5 5.7
2014-Jul-23 04:34N 45°50' W 073°17'0 0.0
2014-Jul-23 03:33N 45°50' W 073°17'0 0.0
2014-Jul-23 02:33N 45°50' W 073°17'0 0.0
2014-Jul-23 01:33N 45°50' W 073°17'0 0.0
2014-Jul-23 00:33N 45°50' W 073°17'0 0.0
2014-Jul-22 23:33N 45°50' W 073°17'0 0.0
2014-Jul-22 22:33N 45°50' W 073°17'0 0.0
2014-Jul-22 21:33N 45°50' W 073°17'0 0.0
2014-Jul-22 20:33N 45°50' W 073°17'0 0.0
2014-Jul-22 19:33N 45°50' W 073°17'0 0.0
2014-Jul-22 18:33N 45°50' W 073°17'2 1.8
2014-Jul-22 17:33N 45°52' W 073°16'6 5.8
2014-Jul-22 16:31N 45°57' W 073°13'9 6.5
2014-Jul-22 15:12N 46°04' W 073°05'15 7.8
2014-Jul-22 13:14N 46°13' W 072°48'7 9.8
2014-Jul-22 12:33N 46°16' W 072°39'8 8.2
2014-Jul-22 11:33N 46°22' W 072°30'9 8.8
2014-Jul-22 10:33N 46°26' W 072°19'10 9.5
2014-Jul-22 09:33N 46°33' W 072°09'23211.9
2014-Jul-21 14:00N 49°00' W 067°42'   260 / 61024.010.8 0.5-7.7 6.0
2014-Jul-19 07:00N 49°18' W 064°00'17612.6 280 / 171023.010.8 1.515.0 9.0
2014-Jul-18 17:00N 48°30' W 059°42'28 0.8 220 / 221017.010.8 2.017.0 10.0
2014-Jul-17 06:00N 48°30' W 059°00'   250 / 131017.010.8 1.520.0 12.0

Dump ship's entire track history